CET,Max TemperatureF,Mean TemperatureF,Min TemperatureF,Max Dew PointF,MeanDew PointF,Min DewpointF,Max Humidity, Mean Humidity, Min Humidity, Max Sea Level PressureIn, Mean Sea Level PressureIn, Min Sea Level PressureIn, Max VisibilityMiles, Mean VisibilityMiles, Min VisibilityMiles, Max Wind SpeedMPH, Mean Wind SpeedMPH, Max Gust SpeedMPH,PrecipitationIn, CloudCover, Events, WindDirDegrees
2013-12-1,59,49,39,34,29,27,70,49,29,30.04,29.99,29.95,,,,21,9,32,0.00,,,35
2013-12-2,64,50,37,41,32,27,65,51,31,30.12,30.06,30.04,6,6,6,10,7,,0.00,1,,53
2013-12-3,64,52,39,46,40,34,81,63,45,30.21,30.16,30.12,6,6,6,16,9,28,0.00,1,,76
2013-12-4,68,55,42,50,43,37,82,67,46,30.27,30.23,30.21,6,6,6,15,8,,0.00,1,,63
2013-12-5,68,56,44,50,45,39,87,70,46,30.33,30.27,30.24,6,6,6,10,6,,0.00,1,,69
2013-12-6,66,54,41,46,41,36,87,67,37,30.24,30.21,30.15,,,,12,7,,0.00,,,70
2013-12-7,66,54,41,46,40,36,82,64,40,30.27,30.20,30.18,,,,10,9,,0.00,,,53
2013-12-8,62,52,41,45,41,39,93,70,42,30.33,30.28,30.24,6,6,6,7,4,,0.00,1,,54
2013-12-9,66,54,41,46,41,34,82,68,45,30.36,30.31,30.27,6,6,6,16,8,,0.00,1,,62
2013-12-10,66,54,42,48,44,37,81,67,46,30.33,30.29,30.27,,,,25,11,37,0.00,,,86
2013-12-11,62,60,55,46,46,46,72,61,55,30.33,30.28,30.24,6,6,6,28,21,41,0.00,1,,116
2013-12-12,66,57,48,48,43,37,77,61,45,30.39,30.34,30.30,,,,9,7,,0.00,,,43
2013-12-13,64,58,51,54,48,43,94,71,55,30.39,30.34,30.30,6,6,6,9,3,,0.00,2,,313
2013-12-14,66,57,48,55,48,43,94,72,59,30.42,30.35,30.30,6,6,5,14,7,,0.00,1,,76
2013-12-15,66,56,46,48,45,39,77,66,46,30.45,30.40,30.36,6,6,6,15,8,,0.00,2,,80
2013-12-16,66,55,44,50,45,37,76,68,56,30.36,30.30,30.24,,,,17,10,,0.00,,,82
2013-12-17,60,58,55,59,54,48,94,82,67,30.36,30.30,30.27,6,5,2,13,9,,0.00,5,Rain,144
2013-12-18,60,58,55,57,53,48,100,84,63,30.39,30.34,30.30,6,6,3,9,3,17,0.00,5,Rain,250
2013-12-19,62,58,53,57,51,41,94,76,58,30.33,30.21,30.06,6,5,0,30,10,45,0.00,5,Rain,259
2013-12-20,57,50,42,41,36,30,71,59,36,30.42,30.34,30.24,6,6,6,18,14,30,0.00,1,,354
2013-12-21,60,50,39,43,37,32,81,68,48,30.48,30.43,30.39,,,,12,8,,0.00,,,41
2013-12-22,62,52,41,43,39,36,81,67,39,30.48,30.44,30.39,,,,9,5,24,0.00,,,41
2013-12-23,62,52,41,48,42,37,93,76,59,30.42,30.34,30.27,6,4,3,7,4,,0.00,,,40
2013-12-24,62,53,44,55,50,43,93,79,68,30.27,30.11,29.95,6,6,3,24,9,37,0.00,5,,191
2013-12-25,62,58,55,59,55,48,100,84,72,29.98,29.83,29.74,6,4,0,36,25,55,0.00,6,Rain,260
2013-12-26,60,56,53,54,50,48,82,75,63,30.24,30.14,30.01,6,6,6,14,9,,0.00,3,,284
2013-12-27,62,56,51,57,55,50,100,87,77,30.24,30.12,30.04,6,6,6,14,6,,0.00,5,Rain,197
2013-12-28,60,56,51,59,47,39,94,72,51,30.27,30.11,29.98,6,6,4,21,14,,0.00,3,Rain,304
2013-12-29,55,48,41,41,39,37,87,70,51,30.45,30.39,30.30,,,,13,8,,0.00,,,4
2013-12-30,59,49,39,45,39,36,87,76,51,30.45,30.38,30.33,,,,10,6,,0.00,,,39
2013-12-31,59,50,41,50,42,37,93,78,59,30.33,30.26,30.21,6,6,6,7,4,,0.00,4,,74